EN

Hourly Weather Laguna Sargazo

Today, 1 August, Sunday

Time Temperature Precipitation Wind Pressure Humidity
00:00 -1°C° 0 mm 1 mps 700 mmHg 84%
01:00 -1°C° 0 mm 1 mps 700 mmHg 82%
02:00 -1°C° 0 mm 1 mps 699 mmHg 81%
03:00 -1°C° 0 mm 1 mps 699 mmHg 79%
04:00 -1°C° 0 mm 1 mps 699 mmHg 77%
05:00 -1°C° 0 mm 1 mps 699 mmHg 76%
06:00 -1°C° 0 mm 1 mps 699 mmHg 74%
07:00 -1°C° 0 mm 1 mps 699 mmHg 73%
08:00 +2°C° 0 mm 1 mps 699 mmHg 66%
09:00 +5°C° 0 mm 1 mps 699 mmHg 59%
10:00 +8°C° 0 mm 1 mps 699 mmHg 52%
11:00 +9°C° 0 mm 1 mps 699 mmHg 51%
12:00 +9°C° 0 mm 0 mps 699 mmHg 50%
13:00 +10°C° 0 mm 0 mps 698 mmHg 49%
14:00 +9°C° 0 mm 0 mps 698 mmHg 57%
15:00 +8°C° 0 mm 0 mps 698 mmHg 65%
16:00 +8°C° 0 mm 1 mps 698 mmHg 73%
17:00 +6°C° 0 mm 1 mps 698 mmHg 72%
18:00 +4°C° 0 mm 1 mps 698 mmHg 71%
19:00 +3°C° 0 mm 1 mps 698 mmHg 70%
20:00 +2°C° 0 mm 1 mps 698 mmHg 70%
21:00 +2°C° 0 mm 1 mps 698 mmHg 69%
22:00 +2°C° 0 mm 1 mps 697 mmHg 69%
23:00 +2°C° 0 mm 1 mps 697 mmHg 70%

Tomorrow, 2 August, Monday

Time Temperature Precipitation Wind Pressure Humidity
00:00 +2°C° 0 mm 1 mps 697 mmHg 72%
01:00 +1°C° 0 mm 1 mps 698 mmHg 73%
02:00 +1°C° 0 mm 1 mps 697 mmHg 76%
03:00 +1°C° 0 mm 1 mps 697 mmHg 80%
04:00 +1°C° 0 mm 1 mps 697 mmHg 83%
05:00 +1°C° 0 mm 1 mps 697 mmHg 85%
06:00 +1°C° 0 mm 1 mps 697 mmHg 87%
07:00 +1°C° 0 mm 1 mps 698 mmHg 89%
08:00 +4°C° 0 mm 1 mps 698 mmHg 82%
09:00 +5°C° 0 mm 0 mps 698 mmHg 76%
10:00 +8°C° 0 mm 0 mps 699 mmHg 69%
11:00 +9°C° 0 mm 0 mps 699 mmHg 69%
12:00 +11°C° 0 mm 1 mps 698 mmHg 69%
13:00 +12°C° 0 mm 1 mps 698 mmHg 68%
14:00 +11°C° 0 mm 1 mps 698 mmHg 74%
15:00 +10°C° 0 mm 1 mps 698 mmHg 80%
16:00 +9°C° 0 mm 1 mps 698 mmHg 85%
17:00 +8°C° 0 mm 1 mps 698 mmHg 88%
18:00 +6°C° 0 mm 0 mps 698 mmHg 90%
19:00 +5°C° 0 mm 0 mps 698 mmHg 93%
20:00 +5°C° 0 mm 0 mps 698 mmHg 93%
21:00 +4°C° 0 mm 0 mps 698 mmHg 94%
22:00 +5°C° 0 mm 1 mps 698 mmHg 95%
23:00 +5°C° 0 mm 1 mps 698 mmHg 95%

Day after tomorrow, 3 August, Tuesday

Time Temperature Precipitation Wind Pressure Humidity
00:00 +5°C° 0 mm 1 mps 698 mmHg 95%
01:00 +5°C° 0 mm 1 mps 698 mmHg 96%
02:00 +5°C° 0 mm 1 mps 698 mmHg 96%
03:00 +5°C° 0 mm 1 mps 697 mmHg 96%
04:00 +5°C° 0 mm 1 mps 697 mmHg 96%
05:00 +4°C° 0 mm 1 mps 697 mmHg 96%
06:00 +4°C° 0 mm 1 mps 697 mmHg 97%
07:00 +4°C° 0 mm 1 mps 697 mmHg 97%
08:00 +6°C° 0 mm 1 mps 697 mmHg 91%
09:00 +8°C° 0 mm 1 mps 697 mmHg 85%
10:00 +10°C° 0 mm 1 mps 698 mmHg 79%
11:00 +11°C° 0 mm 1 mps 697 mmHg 76%
12:00 +12°C° 0 mm 1 mps 697 mmHg 73%
13:00 +13°C° 0 mm 2 mps 697 mmHg 70%
14:00 +12°C° 0 mm 1 mps 696 mmHg 76%
15:00 +11°C° 0 mm 1 mps 696 mmHg 81%
16:00 +10°C° 0 mm 1 mps 695 mmHg 86%
17:00 +9°C° 0 mm 1 mps 695 mmHg 88%
18:00 +8°C° 0 mm 1 mps 695 mmHg 91%
19:00 +7°C° 0 mm 1 mps 695 mmHg 93%
20:00 +7°C° 0 mm 1 mps 695 mmHg 93%
21:00 +6°C° 0 mm 1 mps 694 mmHg 92%
22:00 +5°C° 0 mm 2 mps 694 mmHg 92%
23:00 +5°C° 0 mm 2 mps 694 mmHg 91%

4 August, Wednesday

Time Temperature Precipitation Wind Pressure Humidity
00:00 +5°C° 0 mm 2 mps 693 mmHg 90%
01:00 +4°C° 0 mm 2 mps 693 mmHg 89%
02:00 +5°C° 0 mm 2 mps 693 mmHg 88%
03:00 +5°C° 0 mm 2 mps 692 mmHg 87%
04:00 +6°C° 0 mm 1 mps 692 mmHg 85%
05:00 +4°C° 0 mm 2 mps 691 mmHg 84%
06:00 +4°C° 0 mm 2 mps 691 mmHg 83%
07:00 +4°C° 0 mm 2 mps 691 mmHg 82%
08:00 +6°C° 0 mm 2 mps 691 mmHg 77%
09:00 +8°C° 0 mm 2 mps 690 mmHg 72%
10:00 +11°C° 0 mm 1 mps 690 mmHg 67%
11:00 +12°C° 0 mm 1 mps 690 mmHg 66%
12:00 +13°C° 0 mm 1 mps 690 mmHg 65%
13:00 +14°C° 0 mm 1 mps 689 mmHg 64%
14:00 +13°C° 0 mm 1 mps 689 mmHg 68%
15:00 +12°C° 0 mm 1 mps 689 mmHg 72%
16:00 +12°C° 0 mm 1 mps 689 mmHg 76%
17:00 +10°C° 0 mm 1 mps 689 mmHg 78%
18:00 +9°C° 0 mm 1 mps 690 mmHg 79%
19:00 +8°C° 0 mm 1 mps 690 mmHg 80%
20:00 +8°C° 0 mm 1 mps 690 mmHg 79%
21:00 +7°C° 0 mm 1 mps 690 mmHg 77%
22:00 +6°C° 0 mm 2 mps 690 mmHg 76%
23:00 +6°C° 0 mm 2 mps 690 mmHg 77%

5 August, Thursday

Time Temperature Precipitation Wind Pressure Humidity
00:00 +6°C° 0 mm 2 mps 690 mmHg 78%
01:00 +5°C° 0 mm 2 mps 690 mmHg 79%
02:00 +5°C° 0 mm 2 mps 690 mmHg 80%
03:00 +5°C° 0 mm 2 mps 690 mmHg 81%
04:00 +5°C° 0 mm 2 mps 690 mmHg 82%
05:00 +4°C° 0 mm 2 mps 690 mmHg 83%
06:00 +4°C° 0 mm 2 mps 690 mmHg 85%
07:00 +4°C° 0 mm 2 mps 690 mmHg 87%
08:00 +6°C° 0 mm 2 mps 690 mmHg 80%
09:00 +8°C° 0 mm 2 mps 690 mmHg 74%
10:00 +9°C° 0 mm 3 mps 690 mmHg 68%
11:00 +10°C° 0 mm 3 mps 690 mmHg 64%
12:00 +11°C° 0 mm 3 mps 690 mmHg 59%
13:00 +11°C° 0 mm 4 mps 690 mmHg 55%
14:00 +10°C° 0 mm 4 mps 690 mmHg 62%
15:00 +8°C° 0 mm 4 mps 690 mmHg 68%
16:00 +7°C° 0 mm 4 mps 690 mmHg 74%
17:00 +8°C° 0.8 mm 3 mps 690 mmHg 81%
18:00 +7°C° 0.8 mm 3 mps 691 mmHg 88%
19:00 +5°C° 0.8 mm 3 mps 691 mmHg 95%
20:00 +6°C° 2.5 mm 2 mps 691 mmHg 96%
21:00 +6°C° 2.5 mm 2 mps 691 mmHg 97%
22:00 +6°C° 2.5 mm 2 mps 691 mmHg 98%
23:00 +7°C° 2.2 mm 1 mps 691 mmHg 98%

6 August, Friday

Time Temperature Precipitation Wind Pressure Humidity
00:00 +7°C° 2.2 mm 1 mps 691 mmHg 99%
01:00 +7°C° 2.2 mm 1 mps 691 mmHg 99%
02:00 +7°C° 1.8 mm 1 mps 691 mmHg 99%
03:00 +7°C° 1.8 mm 1 mps 691 mmHg 99%
04:00 +7°C° 1.8 mm 1 mps 691 mmHg 99%
05:00 +6°C° 1.5 mm 1 mps 692 mmHg 98%
06:00 +6°C° 1.5 mm 1 mps 692 mmHg 97%
07:00 +6°C° 1.5 mm 1 mps 692 mmHg 96%
08:00 +6°C° 1.4 mm 1 mps 692 mmHg 95%
09:00 +6°C° 1.4 mm 1 mps 693 mmHg 94%
10:00 +6°C° 1.4 mm 1 mps 693 mmHg 94%
11:00 +5°C° 1.5 mm 2 mps 693 mmHg 95%
12:00 +5°C° 1.5 mm 2 mps 692 mmHg 96%
13:00 +4°C° 1.5 mm 2 mps 692 mmHg 97%
14:00 +4°C° 1.7 mm 2 mps 693 mmHg 97%
15:00 +4°C° 1.7 mm 2 mps 693 mmHg 97%
16:00 +2°C° 1.7 mm 3 mps 693 mmHg 97%
17:00 +2°C° 1.4 mm 2 mps 694 mmHg 97%
18:00 +2°C° 1.4 mm 2 mps 694 mmHg 97%
19:00 +2°C° 1.4 mm 1 mps 695 mmHg 96%
20:00 +2°C° 0.3 mm 1 mps 695 mmHg 96%
21:00 +2°C° 0.3 mm 1 mps 696 mmHg 95%
22:00 +1°C° 0.3 mm 1 mps 696 mmHg 95%
23:00 +1°C° 0.1 mm 1 mps 696 mmHg 95%
Show more